Regional Weather Roundup
Issued by NWS

Home | Current Version | Previous Version | Graphics & Text | Print | Product List | Glossary On
Versions: 1 2 3 4 5 6 7 8 9 10 11 12 13 14 15 16 17 18 19 20 21 22 23 24 25 26 27 28 29 30 31 32 33 34 35 36 37 38 39 40 41 42 43 44 45 46 47 48 49 50
000
ASUS43 KDMX 202206
RWRIA

WEATHER ROUNDUP FOR IOWA
NATIONAL WEATHER SERVICE DES MOINES IA
500 PM CDT SUN AUG 20 2017

NOTE: "FAIR" INDICATES FEW OR NO CLOUDS BELOW 12,000 FEET WITH NO
SIGNIFICANT WEATHER AND/OR OBSTRUCTIONS TO VISIBILITY.

* - THESE STATIONS ARE NOT NWS STATIONS...THUS NOT UNDER NWS
QUALITY CONTROL.  THEY ALSO DO NOT REPORT WEATHER SUCH
AS PRECIPITATION OR FOG.

IAZ001>003-012>014-020>022-031>034-043>046-202300-
   NORTHWEST IOWA

CITY           SKY/WX    TMP DP  RH WIND       PRES   REMARKS
CARROLL *      SUNNY     84  72  65 CALM      29.95F HX  89
CHEROKEE *     SUNNY     86  67  54 S8        29.95S HX  88
DENISON *      SUNNY     84  70  61 VRB5      29.97S HX  88
LE MARS *      MOSUNNY  100 N/A N/A SW6       29.94S
ORANGE CITY *  MOSUNNY   84  70  61 S3        29.96S HX  88
SHELDON *      SUNNY     82  68  61 CALM      29.95S HX  85
SIOUX CITY     PTSUNNY   86  68  54 S12       29.94R HX  89
SPENCER        SUNNY     86  66  51 VRB3      29.96R HX  88
STORM LAKE *   SUNNY     82  70  65 SW5       29.96S HX  86
$$

IAZ055>058-069>071-079>083-090>094-202300-
   SOUTHWEST IOWA

CITY           SKY/WX    TMP DP  RH WIND       PRES   REMARKS
ATLANTIC *     MOSUNNY   75  68  78 CALM      29.97F
AUDUBON *      SUNNY     82  73  74 SW5       29.98S HX  88
CLARINDA *     CLOUDY    75  70  83 S6        29.98F
COUNCIL BLFS * SUNNY     81  72  74 S12       29.96S HX  84
CRESTON *      CLOUDY    70  66  88 CALM      30.00F
HARLAN  *      MOSUNNY   81  68  65 S8        30.00R HX  83
LAMONI         CLOUDY    70  66  87 N5        29.99R
RED OAK *      PTSUNNY   77  70  78 VRB3      29.97S
SHENANDOAH *   CLOUDY    82  68  61 S8        29.96F HX  85
$$

IAZ047>049-059>061-072>074-084-202300-
   CENTRAL IOWA

CITY           SKY/WX    TMP DP  RH WIND       PRES   REMARKS
AMES           MOSUNNY   85  74  69 SE8       29.96R HX  92
ANKENY *       CLOUDY    81  68  65 VRB3      29.97S HX  83
BOONE *        SUNNY     86  68  54 SE5       29.96R HX  89
CHARITON *     CLOUDY    72  66  83 SW3       29.99R
DES MOINES     PTSUNNY   81  66  60 SW8       29.97R HX  83
GRINNELL*      CLOUDY    78  68  71 CALM      30.00S HX  80
KNOXVILLE *    CLOUDY    77  66  69 VRB5      29.98R
MARSHALLTOWN   CLOUDY    81  71  71 SE10      29.97R HX  85
NEWTON *       CLOUDY    79  70  73 VRB5      29.99R HX  81
PELLA *        CLOUDY    79  67  66 CALM      29.99S HX  81
PERRY *          N/A     85  71  63 SW5       29.96S HX  89
$$

IAZ004>006-015-016-023>025-035-036-202300-
   NORTH CENTRAL IOWA

CITY           SKY/WX    TMP DP  RH WIND       PRES   REMARKS
ALGONA *       SUNNY     84  66  54 CALM      29.96S HX  86
CLARION *      SUNNY     84  70  61 CALM      29.95S HX  88
ESTHERVILLE    SUNNY     82  68  62 CALM      29.95S HX  85
FORT DODGE *   SUNNY     84  66  54 CALM      29.95F HX  86
MASON CITY     SUNNY     84  66  54 W7        29.97S HX  86
FOREST CITY *    N/A     81  68  65 W7        29.96S HX  83
WEBSTER CITY * SUNNY     86  68  54 CALM      29.94R HX  89
IOWA FALLS *     N/A     85  66  53 CALM      29.99R HX  87
$$

IAZ007>011-017>019-026>030-037>042-050>054-066-202300-
   NORTHEAST IOWA

CITY           SKY/WX    TMP DP  RH WIND       PRES   REMARKS
CEDAR RAPIDS   CLOUDY    80  68  66 SE7       29.98S HX  83
CHARLES CITY * SUNNY     82  68  61 S6        29.97R HX  85
CLINTON *      CLOUDY    76  70  82 S6        30.02R
DECORAH *      SUNNY     82  66  57 VRB3      29.97R HX  85
DUBUQUE        CLOUDY    73  67  81 S9        30.01R
MONTICELLO *   CLOUDY    75  68  78 S10       29.99R
OELWEIN *      SUNNY     81  68  65 S14       29.99R HX  83
WATERLOO       SUNNY     85  62  46 S13       29.95R HX  85
$$

IAZ064-065-067-068-078-202300-
   EAST CENTRAL IOWA

CITY           SKY/WX    TMP DP  RH WIND       PRES   REMARKS
DAVENPORT      PTSUNNY   78  68  71 E9        30.02R HX  80
IOWA CITY      CLOUDY    81  69  67 E8        30.00R HX  84
MUSCATINE *    CLOUDY    84  68  58 SE7       29.98S HX  87
QUAD CITIES    CLOUDY    83  70  64 S7        29.99R HX  87
$$

IAZ062-063-075>077-085>089-095>099-202300-
   SOUTHEAST IOWA

CITY           SKY/WX    TMP DP  RH WIND       PRES   REMARKS
BURLINGTON     PTSUNNY   82  71  69 S10       29.98S HX  86
FAIRFIELD *    CLOUDY    81  66  61 NW8       29.98R HX  83
FORT MADISON * CLOUDY    82  72  69 S7        29.99S HX  87
KEOKUK *       PTSUNNY   82  70  65 S7G14     29.97S HX  86
OSKALOOSA *      N/A     77  68  73 W3        29.99S
CENTERVILLE *    N/A     75  68  78 CALM      30.00F
OTTUMWA        PTSUNNY   79  66  64 W7        29.98S HX  81
WASHINGTON *   CLOUDY    82  72  69 SE7       29.98F HX  87
$$

ABBREVIATIONS USED IN REMARKS
   TC - TEMPERATURES IN CELSIUS
  WCI - WIND CHILL INDEX
   HX - HEAT INDEX
  VSB - VISIBILITY
$$




USA.gov is the U.S. government's official web portal to all federal, state and local government web resources and services.